{"data":{"norad_id":62107,"epoch":"2026-09-21T03:39:23.031360Z","epoch_age_seconds":125935,"freshness":"FRESH","line1":"1 62107U 24220V   26264.15234990  .00010077  00000+0  37514-3 0  9996","line2":"2 62107  43.0018 181.7596 0001135 268.2624  91.8098 15.27587236103084","mean_motion":15.27587236,"eccentricity":0.0001135,"inclination_deg":43.0018,"raan_deg":181.7596,"arg_perigee_deg":268.2624,"mean_anomaly_deg":91.8098,"bstar":0.00037514,"rev_number":10308,"period_min":94.266302183216,"perigee_km":482.24868677536,"apogee_km":483.80617110073,"semimajor_km":6861.164428938,"source":"CELESTRAK","updated_at":"2026-09-22T09:00:49.499628Z"}}